Regional Weather Roundup
Issued by NWS Green Bay, WI

Home | Current Version | Previous Version | Text Only | Print | Product List | Glossary On
Versions: 1 2 3 4 5 6 7 8 9 10 11 12 13 14 15 16 17 18 19 20 21 22 23 24 25 26 27 28 29 30 31 32 33 34 35 36 37 38 39 40 41 42 43 44 45 46 47 48 49 50
000
ASUS43 KGRB 252010
RWRGRB

NORTH-CENTRAL AND NORTHEAST WISCONSIN REGIONAL WEATHER ROUNDUP
NATIONAL WEATHER SERVICE GREEN BAY WI
300 PM CDT SAT OCT 25 2014

WIZ005-009-010>012-018-019-252100-
NORTH CENTRAL WISCONSIN

CITY           SKY/WX    TMP DP  RH WIND       PRES   REMARKS
IRONWOOD       SUNNY     57  28  33 W18G28    29.82R
MANITOWISH WTR SUNNY     58  25  28 NW21G31   29.84S
ARBOR VITAE    SUNNY     59  27  29 W13G28    29.84S
EAGLE RIVER    SUNNY     58  21  24 NW16G30   29.82S
LAND O LAKES   SUNNY     58  23  26 W17G25    29.82S
RHINELANDER    SUNNY     58  25  28 W22G33    29.85S
PHILLIPS       SUNNY     58  27  31 NW13G24   29.89S
ANTIGO         SUNNY     59  28  31 W15G24    29.85S
TOMAHAWK       SUNNY     58  25  27 W16G36    29.87F
MERRILL        SUNNY     61  29  29 NW20      29.87S
$$

WIZ013-073-252100-
NORTHEAST WISCONSIN

CITY           SKY/WX    TMP DP  RH WIND       PRES   REMARKS
IRON MOUNTAIN  SUNNY     61  22  22 W16G29    29.76S
MARINETTE      SUNNY     63  25  23 NW13G23   29.76S
OCONTO         SUNNY     65  27  24 NW12G28   29.79R
$$

WIZ017-030-035>037-045-252100-
CENTRAL WISCONSIN

CITY           SKY/WX    TMP DP  RH WIND       PRES   REMARKS
MEDFORD        SUNNY     58  30  34 W17G26    29.91S
WAUSAU         SUNNY     61  26  26 W22G29    29.86F
MOSINEE        SUNNY     61  28  29 NW22G30   29.89F
MARSHFIELD     SUNNY     61  27  27 NW17G31   29.92S
WISC RAPIDS    SUNNY     64  27  24 NW15G23   29.92F
STEVENS POINT  SUNNY     60  29  32 W16G28    29.89S
WAUPACA        SUNNY     65  30  26 W17G23    29.88S
SHAWANO        SUNNY     65  25  21 NW15G26   29.83S
CLINTONVILLE   SUNNY     63  23  22 W24       29.84S
$$

WIZ038-039-048-051-252100-
FOX VALLEY

CITY           SKY/WX    TMP DP  RH WIND       PRES   REMARKS
NWS GREEN BAY  SUNNY     65  28  24 W25G31    29.81F
APPLETON       SUNNY     63  28  27 W24       29.86S
OSHKOSH        SUNNY     63  31  30 W23G32    29.86S
FOND DU LAC    SUNNY     65  29  25 NW22G32   29.88R
$$

WIZ022-050-052-252100-
EAST CENTRAL WISCONSIN

CITY           SKY/WX    TMP DP  RH WIND       PRES   REMARKS
STURGEON BAY   SUNNY     63  32  31 W16G26    29.79R
MANITOWOC      SUNNY     65  31  28 W20G30    29.81F
SHEBOYGAN      SUNNY     64  30  27 W21G36    29.85S
$$

LMZ563-521-522-541>543-252100-
LAKESHORE

STATION/POSITION TIME  TEMP    WIND        PRES    VSBY  WAVE
                       AIR SEA DIR/SP/G                  HT/PER
                 (UTC) (F)     (DEG/KT/KT) (MB)    (MI)  (FT/S)
SHEBOYGAN LKSHOR 2000   64 51  290/ 24/ 29 1010.6F
KEWAUNEE LKSHORE 2000   64     290/ 12/ 26 1007.9F
ALGOMA MARINA    1900          330/ 14/ 23   N/A
NORTHPORT PIER   2000   60     300/ 13/ 22 1007.1S
N MID LAKE BUOY  2000   55 51  280/ 12/ 16 1006.8R         2/ 4
CHAMBERS ISLAND  2000   63     280/  4/ 15 1007.8S
MENOMINEE LKSHOR 2000   63     280/ 13/ 22 1008.6S
$$



USA.gov is the U.S. government's official web portal to all federal, state and local government web resources and services.